Regional Weather Roundup
Issued by NWS

Home | Current Version | Previous Version | Graphics & Text | Print | Product List | Glossary On
Versions: 1 2 3 4 5 6 7 8 9 10 11 12 13 14 15 16 17 18 19 20 21 22 23 24 25 26 27 28 29 30 31 32 33 34 35 36 37 38 39 40 41 42 43 44 45 46 47 48 49 50
000
ASUS43 KMKX 050000
RWRWI

WISCONSIN REGIONAL WEATHER ROUNDUP
NATIONAL WEATHER SERVICE MILWAUKEE/SULLIVAN WI
700 PM CDT FRI SEP 04 2015

NOTE: "FAIR" INDICATES FEW OR NO CLOUDS BELOW 12,000 FEET WITH NO
SIGNIFICANT WEATHER AND/OR OBSTRUCTIONS TO VISIBILITY.

WIZ001-002-006>008-014>016-023>028-050100-
NORTHWEST WISCONSIN

CITY           SKY/WX    TMP DP  RH WIND       PRES   REMARKS
SUPERIOR ARPT  FAIR      61  58  90 E8        29.97R
ASHLAND        FAIR      67  64  90 N6        29.98R
6HR MIN TEMP:  67; 6HR MAX TEMP:  79;

HAYWARD        FAIR      79  68  69 SE7       29.99R HX  81
6HR MIN TEMP:  79; 6HR MAX TEMP:  83;

SIREN          FAIR      83  71  66 SE9       29.95R HX  87
CUMBERLAND     FAIR      79  70  73 SE8       29.97S HX  81
RICE LAKE      FAIR      80  70  72 SE8       29.99R HX  83
CHETEK         FAIR      80  72  76 SE8       29.97S HX  84
LADYSMITH      FAIR      80  66  63 SE3       30.01S HX  82
EAU CLAIRE     NOT AVBL
MENOMONIE      FAIR      83  71  66 SE8       29.96R HX  88
NEW RICHMOND   FAIR      82  70  66 SE7       29.95R HX  86
OSCEOLA        FAIR      83  72  67 SE10      29.96R HX  88
$$

WIZ003>005-009-010-017-018-050100-
NORTH CENTRAL WISCONSIN

CITY           SKY/WX    TMP DP  RH WIND       PRES   REMARKS
MANITOWISH WTR FAIR      78  66  66 SE3       30.03R HX  80
ARBOR VITAE    FAIR      80  66  62 SE3       30.04R HX  82
WOODRUFF       FAIR      80  66  62 SE3       30.04R HX  82
RHINELANDER    FAIR      76  65  68 SE6       30.06R
6HR MIN TEMP:  76; 6HR MAX TEMP:  83;

EAGLE RIVER    FAIR      77  62  59 SE8       30.04F
LAND O LAKES   FAIR      78  64  61 SE7       30.05F
PHILLIPS       FAIR      78  67  69 SE7       30.02S HX  80
6HR MIN TEMP:  78; 6HR MAX TEMP:  82;

TOMAHAWK       FAIR      77  65  67 CALM      30.04R
MEDFORD        FAIR      75  68  79 SE5       30.03S
MERRILL        FAIR      78  68  71 S5        30.04R HX  80
$$

WIZ029-030-035-036-043>047-050100-
CENTRAL WISCONSIN

CITY           SKY/WX    TMP DP  RH WIND       PRES   REMARKS
WAUSAU         FAIR      77  66  68 S8        30.03R
6HR MIN TEMP:  77; 6HR MAX TEMP:  83;

MOSINEE        PTCLDY    75  68  78 SE5       30.04S
MARSHFIELD     FAIR      77  64  64 E8        30.02S
6HR MIN TEMP:  73; 6HR MAX TEMP:  81;

STEVENS POINT  FAIR      74  66  75 E6        30.03S
WAUPACA        FAIR      77  70  77 S5        30.03S
WAUTOMA        NOT AVBL
WISC RAPIDS    FAIR      76  65  68 E9        30.04R
6HR MIN TEMP:  74; 6HR MAX TEMP:  82;

CAMP DOUGLAS   NOT AVBL
$$

WIZ011>013-019>022-031-037>040-048>050-050100-
NORTHEAST WISCONSIN

CITY           SKY/WX    TMP DP  RH WIND       PRES   REMARKS
ANTIGO         FAIR      74  66  77 E9        30.05S
SHAWANO        NOT AVBL
OCONTO         FAIR      71  68  92 E5        30.04R
STURGEON BAY   FAIR      70  64  83 E5        30.07S
6HR MIN TEMP:  70; 6HR MAX TEMP:  73;

GREEN BAY      FAIR      73  67  81 E8        30.04R
6HR MIN TEMP:  73; 6HR MAX TEMP:  80;

MANITOWOC      NOT AVBL
APPLETON       MOCLDY    73  64  73 VRB3      30.02S
CLINTONVILLE   FAIR      73  64  73 E6        30.03S
OSHKOSH        FAIR      72  66  81 CALM      30.04R
6HR MIN TEMP:  71; 6HR MAX TEMP:  75;

$$

WIZ032>034-041-042-053>061-050100-
SOUTHWEST WISCONSIN

CITY           SKY/WX    TMP DP  RH WIND       PRES   REMARKS
LA CROSSE      FAIR      85  70  60 SE7       29.95R HX  89
6HR MIN TEMP:  85; 6HR MAX TEMP:  89;

SPARTA         FAIR      82  70  66 E3        29.98S HX  86
VIROQUA        FAIR      83  70  64 SE6       30.00S HX  87
BOSCOBEL       FAIR      81  77  88 E3        29.97R HX  88
6HR MIN TEMP:  81; 6HR MAX TEMP:  92; 6HR PCP:  0.06;

PRAIRIE DU CHI FAIR      86  68  54 CALM      29.95S HX  89
PLATTEVILLE    FAIR      84  73  70 S5        29.99S HX  90
$$

WIZ056-057-062-063-064-067-068-050100-
SOUTH CENTRAL WISCONSIN

CITY           SKY/WX    TMP DP  RH WIND       PRES   REMARKS
REEDSBURG      FAIR      81  73  75 E6        29.99S HX  86
BARABOO/DELLS  FAIR      80  68  67 E5        30.00S HX  82
LONE ROCK      NOT AVBL
MINERAL POINT  FAIR      82  72  69 CALM      30.00S HX  87
MADISON        FAIR      79  70  74 E8        30.00R HX  82
6HR MIN TEMP:  79; 6HR MAX TEMP:  84;

MIDDLETON      FAIR      82  71  70 NE5       30.00S HX  86
WATERTOWN      FAIR      79  71  78 E3        30.01S HX  82
MONROE         FAIR      82  70  65 CALM      30.00R HX  86
JANESVILLE     NOT AVBL
$$

WIZ051-052-058>065-066-070>072-050100-
SOUTHEAST WISCONSIN

CITY           SKY/WX    TMP DP  RH WIND       PRES   REMARKS
MILWAUKEE      MOCLDY    68  64  87 E8        30.04R
6HR MIN TEMP:  68; 6HR MAX TEMP:  77;

WAUKESHA       PTCLDY    72  64  78 E9        30.05R
MILWAUKEE/TIMM MOCLDY    70  63  78 E5        30.05R
RACINE         CLOUDY    68  65  90 E6        30.06S
6HR MIN TEMP:  68; 6HR MAX TEMP:  77;

BURLINGTON     FAIR      72  65  76 E9        30.03R
KENOSHA        CLOUDY    68  66  93 E7        30.05R
6HR MIN TEMP:  68; 6HR MAX TEMP:  79;

FOND DU LAC    FAIR      73  66  78 E5        30.04S
6HR MIN TEMP:  73; 6HR MAX TEMP:  77;

SHEBOYGAN      FAIR      69  65  86 E6        30.05R
6HR MIN TEMP:  69; 6HR MAX TEMP:  76;

WEST BEND      FAIR      70  63  78 CALM      30.04R
JUNEAU         MOCLDY    76  68  75 NE7       30.03S
$$

LSZ147-162-050100-
LAKE SUPERIOR

STATION/POSITION TIME  TEMP    WIND        PRES    WAVE
                       AIR SEA DIR/SP/G            HT/PER
                 (UTC) (F)     (DEG/KT/KT) (MB)    (FT/S)
W MID LAKE BUOY  2250   62 58   60/ 12/ 14 1015.6F   1/ 3
DEVILS ISLAND    2300   62      80/ 10/ 11 1015.4R
PORT WING        2340   54      30/ 16/ 17 1014.6R
SAXON HARBOR     2300   71        CALM     1014.6S
$$

LMZ867-665-643>646-050100-
LAKE MICHIGAN

STATION/POSITION TIME  TEMP    WIND        PRES    WAVE
                       AIR SEA DIR/SP/G            HT/PER
                 (UTC) (F)     (DEG/KT/KT) (MB)    (FT/S)
CHAMBERS ISLAND  2300   71      80/  7/  9 1017.3S
S GREEN BAY BUOY 2300   69 68   50/  6/ 10 1018.2F
N MID LAKE BUOY  2250   69 67   40/  6/  8 1017.1F   1/ 4
NORTHPORT PIER   2300   69      90/  4/  6 1016.9F
SISTER BAY       2311   73     110/  9/ 12   N/A
ALGOMA LAKESHORE 2314           60/  8/ 10   N/A
KEWAUNEE LAKESHO 2300   65      30/  5/  7 1016.5R
SHEBOYGAN LAKESH 2300   62     360/  2/  2 1017.6R
PORT WASHINGTON  2300   65      40/  6/  8 1017.6
ATWATER BUOY     2300   63 61  220/  4/  4 1018.4F
MILWAUKEE LAKESH 2310   64     340/  1/  1   N/A
S MID LAKE BUOY  2250   69 71   30/  8/  8 1016.6S   1
KENOSHA   LAKESH 2300   65      CALM  /  4 1016.6F
$$

TC  - TEMPERATURE IN CELSIUS
VSB - VISIBILITY IN STATUTE MILES
WCI - WIND CHILL INDEX
HX  - HEAT INDEX



USA.gov is the U.S. government's official web portal to all federal, state and local government web resources and services.